Year,Month,Day,Hour,Minute,Value (Times are PST for windgust in km/hr)
2011,07,09,00,00,8.10
2011,07,09,00,01,8.10
2011,07,09,00,02,6.40
2011,07,09,00,03,9.60
2011,07,09,00,04,8.10
2011,07,09,00,05,11.30
2011,07,09,00,06,8.10
2011,07,09,00,07,8.10
2011,07,09,00,08,8.10
2011,07,09,00,09,9.60
2011,07,09,00,10,8.10
2011,07,09,00,11,14.50
2011,07,09,00,12,9.60
2011,07,09,00,13,9.60
2011,07,09,00,14,8.10
2011,07,09,00,15,9.60
2011,07,09,00,16,11.30
2011,07,09,00,17,9.60
2011,07,09,00,18,11.30
2011,07,09,00,19,8.10
2011,07,09,00,20,9.60
2011,07,09,00,21,11.30
2011,07,09,00,22,9.60
2011,07,09,00,23,12.90
2011,07,09,00,24,9.60
2011,07,09,00,25,9.60
2011,07,09,00,26,9.60
2011,07,09,00,27,11.30
2011,07,09,00,28,11.30
2011,07,09,00,29,9.60
2011,07,09,00,30,9.60
2011,07,09,00,31,9.60
2011,07,09,00,32,9.60
2011,07,09,00,33,8.10
2011,07,09,00,34,9.60
2011,07,09,00,35,8.10
2011,07,09,00,36,8.10
2011,07,09,00,37,8.10
2011,07,09,00,38,9.60
2011,07,09,00,39,9.60
2011,07,09,00,40,8.10
2011,07,09,00,41,9.60
2011,07,09,00,42,9.60
2011,07,09,00,43,11.30
2011,07,09,00,44,12.90
2011,07,09,00,45,9.60
2011,07,09,00,46,11.30
2011,07,09,00,47,9.60
2011,07,09,00,48,9.60
2011,07,09,00,49,9.60
2011,07,09,00,50,11.30
2011,07,09,00,51,9.60
2011,07,09,00,52,11.30
2011,07,09,00,53,11.30
2011,07,09,00,54,9.60
2011,07,09,00,55,9.60
2011,07,09,00,56,9.60
2011,07,09,00,57,9.60
2011,07,09,00,58,8.10
2011,07,09,00,59,8.10
2011,07,09,01,00,9.60
2011,07,09,01,01,8.10
2011,07,09,01,02,6.40
2011,07,09,01,03,8.10
2011,07,09,01,04,8.10
2011,07,09,01,05,8.10
2011,07,09,01,06,6.40
2011,07,09,01,07,6.40
2011,07,09,01,08,6.40
2011,07,09,01,09,4.80
2011,07,09,01,10,4.80
2011,07,09,01,11,6.40
2011,07,09,01,12,6.40
2011,07,09,01,13,6.40
2011,07,09,01,14,6.40
2011,07,09,01,15,6.40
2011,07,09,01,16,6.40
2011,07,09,01,17,3.20
2011,07,09,01,18,1.60
2011,07,09,01,19,3.20
2011,07,09,01,21,4.80
2011,07,09,01,22,4.80
2011,07,09,01,23,6.40
2011,07,09,01,24,6.40
2011,07,09,01,25,6.40
2011,07,09,01,26,6.40
2011,07,09,01,27,4.80
2011,07,09,01,28,6.40
2011,07,09,01,29,6.40
2011,07,09,01,30,6.40
2011,07,09,01,31,6.40
2011,07,09,01,32,6.40
2011,07,09,01,33,4.80
2011,07,09,01,34,6.40
2011,07,09,01,35,3.20
2011,07,09,01,36,4.80
2011,07,09,01,37,3.20
2011,07,09,01,38,3.20
2011,07,09,01,39,4.80
2011,07,09,01,40,6.40
2011,07,09,01,41,8.10
2011,07,09,01,42,8.10
2011,07,09,01,43,6.40
2011,07,09,01,44,6.40
2011,07,09,01,45,8.10
2011,07,09,01,46,8.10
2011,07,09,01,47,6.40
2011,07,09,01,48,8.10
2011,07,09,01,49,8.10
2011,07,09,01,50,8.10
2011,07,09,01,51,6.40
2011,07,09,01,52,6.40
2011,07,09,01,53,8.10
2011,07,09,01,54,6.40
2011,07,09,01,55,8.10
2011,07,09,01,56,6.40
2011,07,09,01,57,6.40
2011,07,09,01,58,6.40
2011,07,09,01,59,8.10
2011,07,09,02,00,6.40
2011,07,09,02,01,8.10
2011,07,09,02,02,9.60
2011,07,09,02,03,8.10
2011,07,09,02,04,6.40
2011,07,09,02,05,6.40
2011,07,09,02,06,8.10
2011,07,09,02,07,6.40
2011,07,09,02,08,6.40
2011,07,09,02,09,6.40
2011,07,09,02,10,8.10
2011,07,09,02,11,4.80
2011,07,09,02,12,6.40
2011,07,09,02,13,4.80
2011,07,09,02,14,4.80
2011,07,09,02,15,4.80
2011,07,09,02,16,6.40
2011,07,09,02,17,4.80
2011,07,09,02,18,6.40
2011,07,09,02,19,6.40
2011,07,09,02,20,6.40
2011,07,09,02,21,6.40
2011,07,09,02,22,6.40
2011,07,09,02,23,8.10
2011,07,09,02,24,8.10
2011,07,09,02,25,6.40
2011,07,09,02,26,9.60
2011,07,09,02,27,9.60
2011,07,09,02,28,6.40
2011,07,09,02,29,8.10
2011,07,09,02,30,6.40
2011,07,09,02,31,6.40
2011,07,09,02,32,8.10
2011,07,09,02,33,6.40
2011,07,09,02,34,6.40
2011,07,09,02,35,6.40
2011,07,09,02,36,8.10
2011,07,09,02,37,4.80
2011,07,09,02,38,8.10
2011,07,09,02,39,8.10
2011,07,09,02,40,6.40
2011,07,09,02,41,8.10
2011,07,09,02,42,9.60
2011,07,09,02,43,9.60
2011,07,09,02,44,6.40
2011,07,09,02,45,6.40
2011,07,09,02,46,6.40
2011,07,09,02,47,8.10
2011,07,09,02,48,8.10
2011,07,09,02,49,8.10
2011,07,09,02,50,6.40
2011,07,09,02,51,6.40
2011,07,09,02,52,8.10
2011,07,09,02,53,8.10
2011,07,09,02,54,8.10
2011,07,09,02,55,8.10
2011,07,09,02,56,8.10
2011,07,09,02,57,8.10
2011,07,09,02,58,6.40
2011,07,09,02,59,8.10
2011,07,09,03,00,6.40
2011,07,09,03,01,6.40
2011,07,09,03,02,6.40
2011,07,09,03,03,4.80
2011,07,09,03,04,6.40
2011,07,09,03,05,8.10
2011,07,09,03,06,6.40
2011,07,09,03,07,8.10
2011,07,09,03,08,8.10
2011,07,09,03,09,6.40
2011,07,09,03,10,4.80
2011,07,09,03,11,6.40
2011,07,09,03,12,4.80
2011,07,09,03,13,6.40
2011,07,09,03,14,4.80
2011,07,09,03,15,3.20
2011,07,09,03,16,1.60
2011,07,09,03,17,3.20
2011,07,09,03,19,3.20
2011,07,09,03,20,1.60
2011,07,09,03,22,1.60
2011,07,09,03,23,3.20
2011,07,09,03,24,4.80
2011,07,09,03,25,1.60
2011,07,09,03,26,4.80
2011,07,09,03,27,4.80
2011,07,09,03,28,6.40
2011,07,09,03,29,6.40
2011,07,09,03,30,6.40
2011,07,09,03,31,4.80
2011,07,09,03,32,4.80
2011,07,09,03,33,4.80
2011,07,09,03,34,3.20
2011,07,09,03,35,4.80
2011,07,09,03,36,4.80
2011,07,09,03,37,4.80
2011,07,09,03,38,6.40
2011,07,09,03,39,4.80
2011,07,09,03,40,3.20
2011,07,09,03,41,4.80
2011,07,09,03,42,3.20
2011,07,09,03,43,6.40
2011,07,09,03,44,6.40
2011,07,09,03,45,6.40
2011,07,09,03,46,4.80
2011,07,09,03,47,6.40
2011,07,09,03,48,6.40
2011,07,09,03,49,6.40
2011,07,09,03,50,6.40
2011,07,09,03,51,4.80
2011,07,09,03,52,4.80
2011,07,09,03,53,4.80
2011,07,09,03,54,4.80
2011,07,09,03,55,4.80
2011,07,09,03,56,3.20
2011,07,09,03,57,3.20
2011,07,09,03,58,4.80
2011,07,09,03,59,3.20
2011,07,09,04,00,3.20
2011,07,09,04,01,6.40
2011,07,09,04,02,6.40
2011,07,09,04,03,4.80
2011,07,09,04,04,4.80
2011,07,09,04,05,4.80
2011,07,09,04,06,4.80
2011,07,09,04,07,6.40
2011,07,09,04,08,6.40
2011,07,09,04,09,1.60
2011,07,09,04,10,4.80
2011,07,09,04,11,1.60
2011,07,09,04,12,4.80
2011,07,09,04,13,3.20
2011,07,09,04,14,1.60
2011,07,09,04,15,1.60
2011,07,09,04,16,4.80
2011,07,09,04,17,4.80
2011,07,09,04,18,4.80
2011,07,09,04,19,3.20
2011,07,09,04,20,4.80
2011,07,09,04,21,4.80
2011,07,09,04,22,4.80
2011,07,09,04,23,4.80
2011,07,09,04,24,4.80
2011,07,09,04,25,3.20
2011,07,09,04,26,4.80
2011,07,09,04,27,4.80
2011,07,09,04,28,3.20
2011,07,09,04,29,4.80
2011,07,09,04,30,4.80
2011,07,09,04,31,4.80
2011,07,09,04,32,6.40
2011,07,09,04,33,4.80
2011,07,09,04,34,4.80
2011,07,09,04,35,4.80
2011,07,09,04,36,4.80
2011,07,09,04,37,4.80
2011,07,09,04,38,4.80
2011,07,09,04,39,6.40
2011,07,09,04,40,6.40
2011,07,09,04,41,6.40
2011,07,09,04,42,6.40
2011,07,09,04,43,4.80
2011,07,09,04,44,1.60
2011,07,09,04,45,4.80
2011,07,09,04,46,6.40
2011,07,09,04,47,6.40
2011,07,09,04,48,6.40
2011,07,09,04,49,4.80
2011,07,09,04,50,4.80
2011,07,09,04,51,6.40
2011,07,09,04,52,6.40
2011,07,09,04,53,4.80
2011,07,09,04,54,4.80
2011,07,09,04,55,4.80
2011,07,09,04,56,3.20
2011,07,09,04,57,4.80
2011,07,09,04,58,4.80
2011,07,09,04,59,3.20
2011,07,09,05,00,3.20
2011,07,09,05,01,4.80
2011,07,09,05,02,4.80
2011,07,09,05,03,3.20
2011,07,09,05,04,1.60
2011,07,09,05,12,1.60
2011,07,09,05,13,1.60
2011,07,09,05,14,4.80
2011,07,09,05,15,4.80
2011,07,09,05,16,6.40
2011,07,09,05,17,6.40
2011,07,09,05,18,4.80
2011,07,09,05,21,1.60
2011,07,09,05,23,1.60
2011,07,09,05,24,1.60
2011,07,09,05,25,1.60
2011,07,09,05,38,3.20
2011,07,09,05,39,4.80
2011,07,09,05,40,1.60
2011,07,09,05,41,3.20
2011,07,09,05,42,1.60
2011,07,09,05,46,1.60
2011,07,09,05,47,3.20
2011,07,09,05,48,3.20
2011,07,09,05,49,4.80
2011,07,09,05,50,3.20
2011,07,09,05,51,3.20
2011,07,09,05,52,3.20
2011,07,09,05,56,1.60
2011,07,09,05,57,3.20
2011,07,09,05,58,3.20
2011,07,09,06,18,1.60
2011,07,09,06,20,1.60
2011,07,09,06,21,1.60
2011,07,09,06,23,1.60
2011,07,09,06,25,1.60
2011,07,09,06,26,3.20
2011,07,09,06,30,1.60
2011,07,09,06,35,1.60
2011,07,09,06,36,1.60
2011,07,09,06,37,1.60
2011,07,09,07,14,1.60
2011,07,09,07,15,1.60
2011,07,09,07,17,1.60
2011,07,09,07,18,3.20
2011,07,09,07,19,1.60
2011,07,09,07,21,1.60
2011,07,09,07,22,1.60
2011,07,09,07,23,3.20
2011,07,09,07,24,1.60
2011,07,09,07,25,1.60
2011,07,09,07,26,1.60
2011,07,09,07,27,1.60
2011,07,09,07,31,1.60
2011,07,09,07,35,3.20
2011,07,09,07,36,4.80
2011,07,09,07,39,1.60
2011,07,09,07,40,1.60
2011,07,09,07,41,1.60
2011,07,09,07,42,1.60
2011,07,09,07,44,1.60
2011,07,09,07,48,1.60
2011,07,09,07,50,1.60
2011,07,09,07,52,1.60
2011,07,09,07,53,1.60
2011,07,09,07,54,3.20
2011,07,09,07,55,1.60
2011,07,09,07,56,1.60
2011,07,09,07,57,3.20
2011,07,09,07,58,3.20
2011,07,09,07,59,3.20
2011,07,09,08,00,3.20
2011,07,09,08,01,4.80
2011,07,09,08,02,4.80
2011,07,09,08,03,4.80
2011,07,09,08,04,6.40
2011,07,09,08,05,4.80
2011,07,09,08,06,6.40
2011,07,09,08,07,8.10
2011,07,09,08,08,6.40
2011,07,09,08,09,6.40
2011,07,09,08,10,4.80
2011,07,09,08,11,4.80
2011,07,09,08,12,4.80
2011,07,09,08,13,3.20
2011,07,09,08,14,4.80
2011,07,09,08,15,4.80
2011,07,09,08,16,4.80
2011,07,09,08,17,1.60
2011,07,09,08,18,4.80
2011,07,09,08,19,3.20
2011,07,09,08,20,6.40
2011,07,09,08,21,1.60
2011,07,09,08,22,3.20
2011,07,09,08,23,6.40
2011,07,09,08,24,6.40
2011,07,09,08,25,1.60
2011,07,09,08,26,3.20
2011,07,09,08,27,3.20
2011,07,09,08,28,4.80
2011,07,09,08,29,3.20
2011,07,09,08,30,1.60
2011,07,09,08,31,1.60
2011,07,09,08,33,3.20
2011,07,09,08,34,1.60
2011,07,09,08,35,4.80
2011,07,09,08,36,6.40
2011,07,09,08,37,4.80
2011,07,09,08,38,4.80
2011,07,09,08,39,3.20
2011,07,09,08,40,1.60
2011,07,09,08,41,6.40
2011,07,09,08,42,6.40
2011,07,09,08,43,4.80
2011,07,09,08,44,3.20
2011,07,09,08,45,6.40
2011,07,09,08,46,3.20
2011,07,09,08,47,1.60
2011,07,09,08,48,4.80
2011,07,09,08,49,1.60
2011,07,09,08,50,1.60
2011,07,09,08,51,4.80
2011,07,09,08,54,4.80
2011,07,09,08,55,4.80
2011,07,09,08,56,4.80
2011,07,09,08,57,4.80
2011,07,09,08,58,4.80
2011,07,09,08,59,1.60
2011,07,09,09,00,1.60
2011,07,09,09,01,4.80
2011,07,09,09,02,3.20
2011,07,09,09,03,4.80
2011,07,09,09,04,6.40
2011,07,09,09,05,8.10
2011,07,09,09,06,4.80
2011,07,09,09,07,6.40
2011,07,09,09,08,4.80
2011,07,09,09,09,4.80
2011,07,09,09,10,4.80
2011,07,09,09,11,4.80
2011,07,09,09,12,3.20
2011,07,09,09,13,4.80
2011,07,09,09,14,6.40
2011,07,09,09,15,4.80
2011,07,09,09,16,8.10
2011,07,09,09,17,8.10
2011,07,09,09,18,4.80
2011,07,09,09,19,4.80
2011,07,09,09,20,6.40
2011,07,09,09,21,8.10
2011,07,09,09,22,6.40
2011,07,09,09,23,4.80
2011,07,09,09,24,8.10
2011,07,09,09,25,3.20
2011,07,09,09,26,4.80
2011,07,09,09,27,4.80
2011,07,09,09,28,4.80
2011,07,09,09,29,1.60
2011,07,09,09,30,4.80
2011,07,09,09,31,4.80
2011,07,09,09,32,4.80
2011,07,09,09,33,6.40
2011,07,09,09,34,1.60
2011,07,09,09,35,6.40
2011,07,09,09,36,4.80
2011,07,09,09,37,4.80
2011,07,09,09,38,4.80
2011,07,09,09,39,4.80
2011,07,09,09,40,8.10
2011,07,09,09,41,6.40
2011,07,09,09,42,9.60
2011,07,09,09,43,8.10
2011,07,09,09,44,6.40
2011,07,09,09,45,6.40
2011,07,09,09,46,6.40
2011,07,09,09,47,8.10
2011,07,09,09,48,9.60
2011,07,09,09,49,8.10
2011,07,09,09,50,9.60
2011,07,09,09,51,6.40
2011,07,09,09,52,6.40
2011,07,09,09,53,6.40
2011,07,09,09,54,6.40
2011,07,09,09,55,3.20
2011,07,09,09,56,4.80
2011,07,09,09,57,4.80
2011,07,09,09,58,8.10
2011,07,09,09,59,8.10
2011,07,09,10,00,8.10
2011,07,09,10,01,6.40
2011,07,09,10,02,8.10
2011,07,09,10,03,4.80
2011,07,09,10,04,6.40
2011,07,09,10,05,3.20
2011,07,09,10,06,3.20
2011,07,09,10,07,6.40
2011,07,09,10,08,4.80
2011,07,09,10,09,8.10
2011,07,09,10,10,6.40
2011,07,09,10,11,3.20
2011,07,09,10,12,6.40
2011,07,09,10,13,6.40
2011,07,09,10,14,6.40
2011,07,09,10,15,3.20
2011,07,09,10,16,6.40
2011,07,09,10,17,4.80
2011,07,09,10,18,8.10
2011,07,09,10,19,9.60
2011,07,09,10,20,8.10
2011,07,09,10,21,8.10
2011,07,09,10,22,11.30
2011,07,09,10,23,9.60
2011,07,09,10,24,4.80
2011,07,09,10,25,6.40
2011,07,09,10,26,6.40
2011,07,09,10,27,6.40
2011,07,09,10,28,6.40
2011,07,09,10,29,6.40
2011,07,09,10,30,8.10
2011,07,09,10,31,8.10
2011,07,09,10,32,9.60
2011,07,09,10,33,9.60
2011,07,09,10,34,8.10
2011,07,09,10,35,8.10
2011,07,09,10,36,9.60
2011,07,09,10,37,9.60
2011,07,09,10,38,8.10
2011,07,09,10,39,8.10
2011,07,09,10,40,9.60
2011,07,09,10,41,9.60
2011,07,09,10,42,8.10
2011,07,09,10,43,6.40
2011,07,09,10,44,8.10
2011,07,09,10,45,9.60
2011,07,09,10,46,8.10
2011,07,09,10,47,9.60
2011,07,09,10,48,8.10
2011,07,09,10,49,9.60
2011,07,09,10,50,9.60
2011,07,09,10,51,6.40
2011,07,09,10,52,8.10
2011,07,09,10,53,9.60
2011,07,09,10,54,11.30
2011,07,09,10,55,4.80
2011,07,09,10,56,8.10
2011,07,09,10,57,8.10
2011,07,09,10,58,6.40
2011,07,09,10,59,3.20
2011,07,09,11,00,9.60
2011,07,09,11,01,6.40
2011,07,09,11,02,9.60
2011,07,09,11,03,9.60
2011,07,09,11,04,9.60
2011,07,09,11,05,9.60
2011,07,09,11,06,9.60
2011,07,09,11,07,8.10
2011,07,09,11,08,8.10
2011,07,09,11,09,8.10
2011,07,09,11,10,9.60
2011,07,09,11,11,11.30
2011,07,09,11,12,9.60
2011,07,09,11,13,9.60
2011,07,09,11,14,11.30
2011,07,09,11,15,8.10
2011,07,09,11,16,8.10
2011,07,09,11,17,6.40
2011,07,09,11,18,11.30
2011,07,09,11,19,9.60
2011,07,09,11,20,8.10
2011,07,09,11,21,6.40
2011,07,09,11,22,9.60
2011,07,09,11,23,9.60
2011,07,09,11,24,9.60
2011,07,09,11,25,9.60
2011,07,09,11,26,8.10
2011,07,09,11,27,9.60
2011,07,09,11,28,14.50
2011,07,09,11,29,9.60
2011,07,09,11,30,8.10
2011,07,09,11,31,11.30
2011,07,09,11,32,8.10
2011,07,09,11,33,11.30
2011,07,09,11,34,8.10
2011,07,09,11,35,8.10
2011,07,09,11,36,8.10
2011,07,09,11,37,9.60
2011,07,09,11,38,9.60
2011,07,09,11,39,6.40
2011,07,09,11,40,8.10
2011,07,09,11,41,8.10
2011,07,09,11,42,8.10
2011,07,09,11,43,6.40
2011,07,09,11,44,8.10
2011,07,09,11,45,11.30
2011,07,09,11,46,8.10
2011,07,09,11,47,9.60
2011,07,09,11,48,9.60
2011,07,09,11,49,8.10
2011,07,09,11,50,8.10
2011,07,09,11,51,9.60
2011,07,09,11,52,8.10
2011,07,09,11,53,14.50
2011,07,09,11,54,8.10
2011,07,09,11,55,6.40
2011,07,09,11,56,9.60
2011,07,09,11,57,9.60
2011,07,09,11,58,8.10
2011,07,09,11,59,6.40
2011,07,09,12,00,8.10
2011,07,09,12,01,9.60
2011,07,09,12,02,11.30
2011,07,09,12,03,9.60
2011,07,09,12,04,11.30
2011,07,09,12,05,9.60
2011,07,09,12,06,9.60
2011,07,09,12,07,9.60
2011,07,09,12,08,14.50
2011,07,09,12,09,9.60
2011,07,09,12,10,6.40
2011,07,09,12,11,8.10
2011,07,09,12,12,9.60
2011,07,09,12,13,9.60
2011,07,09,12,14,9.60
2011,07,09,12,15,8.10
2011,07,09,12,16,8.10
2011,07,09,12,17,6.40
2011,07,09,12,18,8.10
2011,07,09,12,19,9.60
2011,07,09,12,20,9.60
2011,07,09,12,21,9.60
2011,07,09,12,22,9.60
2011,07,09,12,23,8.10
2011,07,09,12,24,14.50
2011,07,09,12,25,9.60
2011,07,09,12,26,9.60
2011,07,09,12,27,9.60
2011,07,09,12,28,9.60
2011,07,09,12,29,8.10
2011,07,09,12,30,9.60
2011,07,09,12,31,9.60
2011,07,09,12,32,8.10
2011,07,09,12,33,9.60
2011,07,09,12,34,8.10
2011,07,09,12,35,4.80
2011,07,09,12,36,8.10
2011,07,09,12,37,8.10
2011,07,09,12,38,11.30
2011,07,09,12,39,11.30
2011,07,09,12,40,6.40
2011,07,09,12,41,9.60
2011,07,09,12,42,9.60
2011,07,09,12,43,8.10
2011,07,09,12,44,9.60
2011,07,09,12,45,9.60
2011,07,09,12,46,8.10
2011,07,09,12,47,9.60
2011,07,09,12,48,11.30
2011,07,09,12,49,8.10
2011,07,09,12,50,9.60
2011,07,09,12,51,8.10
2011,07,09,12,52,9.60
2011,07,09,12,53,9.60
2011,07,09,12,54,11.30
2011,07,09,12,55,11.30
2011,07,09,12,56,11.30
2011,07,09,12,57,11.30
2011,07,09,12,58,11.30
2011,07,09,12,59,9.60
2011,07,09,13,00,11.30
2011,07,09,13,01,9.60
2011,07,09,13,02,12.90
2011,07,09,13,03,9.60
2011,07,09,13,04,11.30
2011,07,09,13,05,11.30
2011,07,09,13,06,11.30
2011,07,09,13,07,8.10
2011,07,09,13,08,9.60
2011,07,09,13,09,14.50
2011,07,09,13,10,11.30
2011,07,09,13,11,9.60
2011,07,09,13,12,8.10
2011,07,09,13,13,11.30
2011,07,09,13,14,11.30
2011,07,09,13,15,8.10
2011,07,09,13,16,8.10
2011,07,09,13,17,6.40
2011,07,09,13,18,8.10
2011,07,09,13,19,8.10
2011,07,09,13,20,9.60
2011,07,09,13,21,9.60
2011,07,09,13,22,4.80
2011,07,09,13,23,3.20
2011,07,09,13,24,9.60
2011,07,09,13,25,9.60
2011,07,09,13,26,14.50
2011,07,09,13,27,16.10
2011,07,09,13,28,16.10
2011,07,09,13,29,11.30
2011,07,09,13,30,14.50
2011,07,09,13,31,12.90
2011,07,09,13,32,16.10
2011,07,09,13,33,14.50
2011,07,09,13,34,11.30
2011,07,09,13,35,9.60
2011,07,09,13,36,8.10
2011,07,09,13,37,8.10
2011,07,09,13,38,14.50
2011,07,09,13,39,14.50
2011,07,09,13,40,9.60
2011,07,09,13,41,14.50
2011,07,09,13,42,11.30
2011,07,09,13,43,16.10
2011,07,09,13,44,14.50
2011,07,09,13,45,12.90
2011,07,09,13,46,9.60
2011,07,09,13,47,16.10
2011,07,09,13,48,11.30
2011,07,09,13,49,11.30
2011,07,09,13,50,12.90
2011,07,09,13,51,14.50
2011,07,09,13,52,11.30
2011,07,09,13,53,11.30
2011,07,09,13,54,9.60
2011,07,09,13,55,11.30
2011,07,09,13,56,9.60
2011,07,09,13,57,8.10
2011,07,09,13,58,11.30
2011,07,09,13,59,16.10
2011,07,09,14,00,17.70
2011,07,09,14,01,16.10
2011,07,09,14,02,16.10
2011,07,09,14,03,16.10
2011,07,09,14,04,16.10
2011,07,09,14,05,16.10
2011,07,09,14,06,9.60
2011,07,09,14,07,9.60
2011,07,09,14,08,11.30
2011,07,09,14,09,11.30
2011,07,09,14,10,11.30
2011,07,09,14,11,9.60
2011,07,09,14,12,16.10
2011,07,09,14,13,6.40
2011,07,09,14,14,8.10
2011,07,09,14,15,8.10
2011,07,09,14,16,9.60
2011,07,09,14,17,11.30
2011,07,09,14,18,8.10
2011,07,09,14,19,14.50
2011,07,09,14,20,16.10
2011,07,09,14,21,16.10
2011,07,09,14,22,8.10
2011,07,09,14,23,16.10
2011,07,09,14,24,14.50
2011,07,09,14,25,14.50
2011,07,09,14,26,14.50
2011,07,09,14,27,8.10
2011,07,09,14,28,9.60
2011,07,09,14,29,9.60
2011,07,09,14,30,9.60
2011,07,09,14,31,14.50
2011,07,09,14,32,16.10
2011,07,09,14,33,14.50
2011,07,09,14,34,17.70
2011,07,09,14,35,17.70
2011,07,09,14,36,17.70
2011,07,09,14,37,16.10
2011,07,09,14,38,11.30
2011,07,09,14,39,16.10
2011,07,09,14,40,14.50
2011,07,09,14,41,6.40
2011,07,09,14,42,16.10
2011,07,09,14,43,12.90
2011,07,09,14,44,8.10
2011,07,09,14,45,9.60
2011,07,09,14,46,8.10
2011,07,09,14,47,6.40
2011,07,09,14,48,4.80
2011,07,09,14,49,11.30
2011,07,09,14,50,4.80
2011,07,09,14,51,8.10
2011,07,09,14,52,17.70
2011,07,09,14,53,11.30
2011,07,09,14,54,12.90
2011,07,09,14,55,17.70
2011,07,09,14,56,14.50
2011,07,09,14,57,9.60
2011,07,09,14,58,11.30
2011,07,09,14,59,14.50
2011,07,09,15,00,6.40
2011,07,09,15,01,9.60
2011,07,09,15,02,4.80
2011,07,09,15,03,6.40
2011,07,09,15,04,11.30
2011,07,09,15,05,11.30
2011,07,09,15,06,14.50
2011,07,09,15,07,19.30
2011,07,09,15,08,11.30
2011,07,09,15,09,19.30
2011,07,09,15,10,16.10
2011,07,09,15,11,16.10
2011,07,09,15,12,14.50
2011,07,09,15,13,19.30
2011,07,09,15,14,9.60
2011,07,09,15,15,14.50
2011,07,09,15,16,14.50
2011,07,09,15,17,9.60
2011,07,09,15,18,9.60
2011,07,09,15,19,16.10
2011,07,09,15,20,14.50
2011,07,09,15,21,14.50
2011,07,09,15,22,11.30
2011,07,09,15,23,11.30
2011,07,09,15,24,14.50
2011,07,09,15,25,14.50
2011,07,09,15,26,14.50
2011,07,09,15,27,16.10
2011,07,09,15,28,14.50
2011,07,09,15,29,12.90
2011,07,09,15,30,11.30
2011,07,09,15,31,17.70
2011,07,09,15,32,6.40
2011,07,09,15,33,9.60
2011,07,09,15,34,11.30
2011,07,09,15,35,17.70
2011,07,09,15,36,11.30
2011,07,09,15,37,16.10
2011,07,09,15,38,16.10
2011,07,09,15,39,17.70
2011,07,09,15,40,17.70
2011,07,09,15,41,14.50
2011,07,09,15,42,6.40
2011,07,09,15,43,9.60
2011,07,09,15,44,16.10
2011,07,09,15,45,6.40
2011,07,09,15,46,9.60
2011,07,09,15,47,9.60
2011,07,09,15,48,9.60
2011,07,09,15,49,9.60
2011,07,09,15,50,9.60
2011,07,09,15,51,11.30
2011,07,09,15,52,19.30
2011,07,09,15,53,19.30
2011,07,09,15,54,19.30
2011,07,09,15,55,16.10
2011,07,09,15,56,17.70
2011,07,09,15,57,16.10
2011,07,09,15,58,14.50
2011,07,09,15,59,16.10
2011,07,09,16,00,14.50
2011,07,09,16,01,9.60
2011,07,09,16,02,11.30
2011,07,09,16,03,17.70
2011,07,09,16,04,19.30
2011,07,09,16,05,16.10
2011,07,09,16,06,17.70
2011,07,09,16,07,16.10
2011,07,09,16,08,14.50
2011,07,09,16,09,16.10
2011,07,09,16,10,14.50
2011,07,09,16,11,9.60
2011,07,09,16,12,16.10
2011,07,09,16,13,12.90
2011,07,09,16,14,11.30
2011,07,09,16,15,14.50
2011,07,09,16,16,16.10
2011,07,09,16,17,8.10
2011,07,09,16,18,17.70
2011,07,09,16,19,17.70
2011,07,09,16,20,16.10
2011,07,09,16,21,9.60
2011,07,09,16,22,9.60
2011,07,09,16,23,16.10
2011,07,09,16,24,11.30
2011,07,09,16,25,11.30
2011,07,09,16,26,9.60
2011,07,09,16,27,16.10
2011,07,09,16,28,16.10
2011,07,09,16,29,9.60
2011,07,09,16,30,17.70
2011,07,09,16,31,11.30
2011,07,09,16,32,16.10
2011,07,09,16,33,8.10
2011,07,09,16,34,19.30
2011,07,09,16,35,9.60
2011,07,09,16,36,11.30
2011,07,09,16,37,17.70
2011,07,09,16,38,14.50
2011,07,09,16,39,9.60
2011,07,09,16,40,9.60
2011,07,09,16,41,11.30
2011,07,09,16,42,12.90
2011,07,09,16,43,16.10
2011,07,09,16,44,11.30
2011,07,09,16,45,16.10
2011,07,09,16,46,11.30
2011,07,09,16,47,19.30
2011,07,09,16,48,9.60
2011,07,09,16,49,16.10
2011,07,09,16,50,16.10
2011,07,09,16,51,9.60
2011,07,09,16,52,17.70
2011,07,09,16,53,9.60
2011,07,09,16,54,11.30
2011,07,09,16,55,14.50
2011,07,09,16,56,12.90
2011,07,09,16,57,8.10
2011,07,09,16,58,6.40
2011,07,09,16,59,11.30
2011,07,09,17,00,17.70
2011,07,09,17,01,16.10
2011,07,09,17,02,14.50
2011,07,09,17,03,16.10
2011,07,09,17,04,17.70
2011,07,09,17,05,12.90
2011,07,09,17,06,11.30
2011,07,09,17,07,9.60
2011,07,09,17,08,9.60
2011,07,09,17,09,8.10
2011,07,09,17,10,8.10
2011,07,09,17,11,12.90
2011,07,09,17,12,9.60
2011,07,09,17,13,16.10
2011,07,09,17,14,14.50
2011,07,09,17,15,9.60
2011,07,09,17,16,11.30
2011,07,09,17,17,9.60
2011,07,09,17,18,12.90
2011,07,09,17,19,16.10
2011,07,09,17,20,16.10
2011,07,09,17,21,8.10
2011,07,09,17,22,17.70
2011,07,09,17,23,14.50
2011,07,09,17,24,17.70
2011,07,09,17,25,16.10
2011,07,09,17,26,11.30
2011,07,09,17,27,11.30
2011,07,09,17,28,19.30
2011,07,09,17,29,14.50
2011,07,09,17,30,14.50
2011,07,09,17,31,16.10
2011,07,09,17,32,11.30
2011,07,09,17,33,14.50
2011,07,09,17,34,16.10
2011,07,09,17,35,11.30
2011,07,09,17,36,19.30
2011,07,09,17,37,16.10
2011,07,09,17,38,17.70
2011,07,09,17,39,12.90
2011,07,09,17,40,12.90
2011,07,09,17,41,9.60
2011,07,09,17,42,11.30
2011,07,09,17,43,8.10
2011,07,09,17,44,16.10
2011,07,09,17,45,14.50
2011,07,09,17,46,16.10
2011,07,09,17,47,12.90
2011,07,09,17,48,16.10
2011,07,09,17,49,11.30
2011,07,09,17,50,14.50
2011,07,09,17,51,11.30
2011,07,09,17,52,8.10
2011,07,09,17,53,9.60
2011,07,09,17,54,9.60
2011,07,09,17,55,12.90
2011,07,09,17,56,17.70
2011,07,09,17,57,16.10
2011,07,09,17,58,17.70
2011,07,09,17,59,17.70
2011,07,09,18,00,14.50
2011,07,09,18,01,8.10
2011,07,09,18,02,6.40
2011,07,09,18,03,11.30
2011,07,09,18,04,9.60
2011,07,09,18,05,11.30
2011,07,09,18,06,6.40
2011,07,09,18,07,16.10
2011,07,09,18,08,11.30
2011,07,09,18,09,8.10
2011,07,09,18,10,9.60
2011,07,09,18,11,6.40
2011,07,09,18,12,8.10
2011,07,09,18,13,16.10
2011,07,09,18,14,16.10
2011,07,09,18,15,9.60
2011,07,09,18,16,11.30
2011,07,09,18,17,9.60
2011,07,09,18,18,20.90
2011,07,09,18,19,14.50
2011,07,09,18,20,11.30
2011,07,09,18,21,11.30
2011,07,09,18,22,9.60
2011,07,09,18,23,16.10
2011,07,09,18,24,11.30
2011,07,09,18,25,9.60
2011,07,09,18,26,8.10
2011,07,09,18,27,16.10
2011,07,09,18,28,9.60
2011,07,09,18,29,6.40
2011,07,09,18,30,11.30
2011,07,09,18,31,17.70
2011,07,09,18,32,14.50
2011,07,09,18,33,11.30
2011,07,09,18,34,9.60
2011,07,09,18,35,9.60
2011,07,09,18,36,4.80
2011,07,09,18,37,9.60
2011,07,09,18,38,6.40
2011,07,09,18,39,9.60
2011,07,09,18,40,9.60
2011,07,09,18,41,9.60
2011,07,09,18,42,9.60
2011,07,09,18,43,14.50
2011,07,09,18,44,11.30
2011,07,09,18,45,4.80
2011,07,09,18,46,12.90
2011,07,09,18,47,11.30
2011,07,09,18,48,11.30
2011,07,09,18,49,9.60
2011,07,09,18,50,14.50
2011,07,09,18,51,11.30
2011,07,09,18,52,9.60
2011,07,09,18,53,11.30
2011,07,09,18,54,11.30
2011,07,09,18,55,11.30
2011,07,09,18,56,8.10
2011,07,09,18,57,11.30
2011,07,09,18,58,9.60
2011,07,09,18,59,9.60
2011,07,09,19,00,14.50
2011,07,09,19,01,9.60
2011,07,09,19,02,11.30
2011,07,09,19,03,8.10
2011,07,09,19,04,6.40
2011,07,09,19,05,11.30
2011,07,09,19,06,12.90
2011,07,09,19,07,11.30
2011,07,09,19,08,9.60
2011,07,09,19,09,9.60
2011,07,09,19,10,8.10
2011,07,09,19,11,6.40
2011,07,09,19,12,9.60
2011,07,09,19,13,4.80
2011,07,09,19,14,4.80
2011,07,09,19,15,4.80
2011,07,09,19,16,6.40
2011,07,09,19,17,8.10
2011,07,09,19,18,4.80
2011,07,09,19,19,14.50
2011,07,09,19,20,9.60
2011,07,09,19,21,9.60
2011,07,09,19,22,11.30
2011,07,09,19,23,11.30
2011,07,09,19,24,11.30
2011,07,09,19,25,16.10
2011,07,09,19,26,8.10
2011,07,09,19,27,6.40
2011,07,09,19,28,8.10
2011,07,09,19,29,6.40
2011,07,09,19,30,4.80
2011,07,09,19,31,14.50
2011,07,09,19,32,19.30
2011,07,09,19,33,11.30
2011,07,09,19,34,17.70
2011,07,09,19,35,16.10
2011,07,09,19,36,11.30
2011,07,09,19,37,11.30
2011,07,09,19,38,8.10
2011,07,09,19,39,11.30
2011,07,09,19,40,12.90
2011,07,09,19,41,9.60
2011,07,09,19,42,8.10
2011,07,09,19,43,9.60
2011,07,09,19,44,9.60
2011,07,09,19,45,6.40
2011,07,09,19,46,9.60
2011,07,09,19,47,9.60
2011,07,09,19,48,16.10